Location: *
(17.3280°S, 114.7300°W)
Time: 06:18:23
(UTC+00:00)

H-2A R/B - Pass Details

Date: 05 August 2020
Orbit: 500 x 542 km, 97.3° (Epoch: 17 June)

Event Time Altitude Azimuth Distance (km) Brightness Sun altitude
Rises 13:28:33 0° 350° (N) 2,670 6.4 -8.7°
Reaches altitude 10° 13:30:53 10° 338° (NNW) 1,782 5.4 -8.1°
Maximum altitude 13:34:11 27° 279° (W) 1,044 3.7 -7.4°
Drops below altitude 10° 13:37:29 10° 220° (SW) 1,781 4.9 -6.6°
Sets 13:39:50 0° 207° (SSW) 2,669 5.9 -6.1°
